STARLINK-33723, 63593

Orbit data source: Space-Track

STARLINK-33723, 63593 is a payload satellite owned by SpaceX/Seattle (US) in LEO that was launched on Mon, 14 Apr 2025 UTC via an FALCON 9 launch vehicle from the Air Force Eastern Test Range (AFETR). Payload-class satellites include a variety of spacecraft equipped with specific instruments for various scientific and technological missions. These include communications satellites like Starlink; space stations such as the ISS; scientific satellites like the Hubble; Earth observation satellites from companies like Planet Labs, Umbra, and HawkEye 360; GPS; miniature CubeSats for education and research; and military/defense satellites.

Loading next visibility...
Identifier
63593, 2025-076AA
Orbit
LEO
Country
Flag of USUS
Related business
Manufacturer
SpaceX/Seattle
Mission
Operational Commercial Communications
Bus & Motor
STARLINK V2MO, Unknown motor
Mass
575 kg wet, ~530 kg dry
Launch date (UTC)
2025-04-14 (1 year ago)
Launch vehicle
FALCON 9
Launch site
Air Force Eastern Test Range (AFETR)
Object type
Payload
Rocket body
Debris
Shape & HBR
Box + 2 Pan, 17.7 m
Radar Cross Section
36.964 m², Large (>1 m²)

Expand to show TLE details & history
Last TLE update: 16 hours ago

TLE from 16 hours ago
0 STARLINK-33723
1 63593U 25076AA  26150.56279259  .00027139  00000-0  99135-3 0  9997
2 63593  43.0011 219.1573 0001552 279.5852  80.4824 15.27605296 64353
Epoch: 2026-05-30T13:30Z
TLE epoch observation values (Epoch: 2026-05-30T13:30:25.279Z)
Latitude
-0.00005°
Longitude
128.47489°
Altitude
482.573 km
Speed
7.626 km/s
True Right ascension
14h 36m 37s
True Declination
0° 00' 00"
Sunlit
Object was in full shadow at epoch
Visualization orbit readout
Latitude
Unknown
Longitude
Unknown
Altitude
Unknown
Speed
Unknown
Apparent Right ascension
Unknown
Apparent Declination
Unknown
Sunlit
N/A
Visualization observer readout
Local Sidereal Time
15:03:06
Azimuth
Unknown
Elevation
Unknown
Doppler factor
Unknown
Orbital elements
Apogee altitude
485.984 km
Perigee altitude
483.853 km
Semi-major axis
6,863.055 km
Eccentricity
0.00016
Inclination
43.0011°
RAAN
219.1573°
Arg. of periapsis
279.5852°
True anomaly
80.49994°
Mean anomaly
80.4824°
Eccentric anomaly
80.49117°
Mean motion
3.81739 °/min
Orbital period
94.31 mins
BSTAR
0.00099135
Loading maneuver chart data...
Computing Atmospheric mass density...
Loading historical data...
Loading historical data...
Loading historical data...
Loading historical data...
Loading historical data...
Loading historical data...
Loading historical data...

Documentation

Showing up to 5 results
|